Regional Weather Roundup
Issued by NWS

Home | Current Version | Previous Version | Graphics & Text | Print | Product List | Glossary On
Versions: 1 2 3 4 5 6 7 8 9 10 11 12 13 14 15 16 17 18 19 20 21 22 23 24 25 26 27 28 29 30 31 32 33 34 35 36 37 38 39 40 41 42 43 44 45 46 47 48 49 50
000
ASUS45 KBOU 011307
RWRCO

WEATHER ROUNDUP FOR COLORADO
NATIONAL WEATHER SERVICE DENVER/BOULDER CO
700 AM MDT TUE SEP 01 2015

NOTE: "FAIR" INDICATES FEW OR NO CLOUDS BELOW 12000 FEET WITH NO
SIGNIFICANT WEATHER AND/OR OBSTRUCTIONS TO VISIBILITY.

COZ001>005-013-030-031-011400-
...NORTHWEST COLORADO...

CITY           SKY/WX    TMP DP  RH WIND       PRES   REMARKS
CRAIG          CLEAR     45  42  89 CALM      30.22R
HAYDEN         NOT AVBL
MEEKER         CLEAR     46  43  89 NE5       30.23R
MOUNT WERNER   NOT AVBL
STEAMBOAT SPGS CLEAR     43  41  93 CALM      30.27R
WALDEN         CLEAR     36  34  93 SE7       30.33S
$$

COZ006>008-011-011400-
...WEST CENTRAL VALLEYS...

CITY           SKY/WX    TMP DP  RH WIND       PRES   REMARKS
GRAND JUNCTION PTCLDY    57  51  80 E5        30.13R
MONTROSE       CLEAR     55  46  71 SE6       30.22R
EAGLE          PTCLDY    45  45 100 CALM      30.33R
RIFLE          PTCLDY    53  48  83 CALM      30.21R
DELTA          CLEAR     58  50  74 NE3       30.19R
NUCLA          CLEAR     55  43  62 SE7       30.26R
$$

COZ017>023-064>068-011400-
...SOUTHWEST COLORADO...

CITY           SKY/WX    TMP DP  RH WIND       PRES   REMARKS
DURANGO        PTCLDY    50  43  77 N3        30.26S
CORTEZ         CLEAR     53  46  77 NE6       30.23R
PAGOSA SPRINGS PTCLDY    49  41  75 CALM      30.34S
TELLURIDE      PTCLDY    48  43  81 SE6       30.44S
WOLF CREEK PAS MOCLDY    43  32  65 W5        30.61S
$$

COZ009-010-012-014-032>034-037-058>063-011400-
...CENTRAL COLORADO...

CITY           SKY/WX    TMP DP  RH WIND       PRES   REMARKS
ASPEN          PTCLDY    46  41  82 S3        30.33R
BUENA VISTA    CLEAR     46  40  78 CALM      30.35R
COPPER MTN     CLEAR     46  36  66 W20G26    30.58R
BERTHOUD PASS  FAIR      36  27  69 NW22G33   30.60R
COTTONWOOD PAS CLEAR     54  37  54 W5        30.45R
GUNNISON         N/A    N/A N/A N/A MISG        N/A
KREMMLING      FOG       37  36  93 CALM      30.36R VSB<1/4
LEADVILLE      CLEAR     36  35  96 CALM      30.44S
MONARCH PASS   PTCLDY    41  36  81 W16       30.69R
SALIDA         CLEAR     52  42  68 NW5       30.39R
SUNLIGHT       CLEAR     46  43  87 CALM      30.53S
WILKERSON PASS PTCLDY    45  34  65 NW10G18   30.55S
$$

COZ069>075-011400-
...SAN LUIS VALLEY/SANGRE DE CRISTO MOUNTAINS...

CITY           SKY/WX    TMP DP  RH WIND       PRES   REMARKS
ALAMOSA        MOCLDY    46  44  93 CALM      30.32R
LA VETA PASS   PTCLDY    48  39  71 S6        30.45S
SAGUACHE       PTCLDY    52  43  71 NW13      30.34S
$$

COZ035-036-038>040-011400-
...NORTHERN COLORADO FRONT RANGE...

CITY           SKY/WX    TMP DP  RH WIND       PRES   REMARKS
DENVER INTL AP PTCLDY    55  50  83 S10       30.11R
DMNS CITY PARK   N/A     60  49  65 SE10      30.11S
AURORA         PTCLDY    58  49  71 S5        30.13R
FRONT RANGE AP PTCLDY    57  50  77 S10       30.12
ERIE MUNI ARPT CLEAR     53  50  92 CALM      30.10R
BOULDER MUN AP CLEAR     57  48  72 CALM      30.10R
CENTENNIAL     PTCLDY    57  49  74 S5        30.14R
BROOMFIELD     PTCLDY    63  46  55 CALM      30.12S
FORT COLLINS   CLEAR     54  46  76 CALM      30.10S
LONGMONT       CLEAR     54  49  83 CALM      30.11R
$$

COZ041-046-047-076>085-087-088-011400-
...PIKES PEAK/PALMER DIVIDE AND SOUTHERN FOOTHILLS...

CITY           SKY/WX    TMP DP  RH WIND       PRES   REMARKS
COLO. SPRINGS  PTCLDY    55  50  83 N3        30.18S
A. F. ACADEMY  PTCLDY    51  47  86 N7        30.20S
ELLICOTT       PTCLDY   N/A N/A N/A CALM      30.16F
FALCON         PTCLDY    54  50  87 MISG      30.23R
FORT CARSON    PTCLDY    55  51  86 N8        30.15S
LIMON          PTCLDY    50  49  96 CALM      30.13R
MONUMENT HILL  CLEAR     54  48  82 SW13      30.23R
TRINIDAD       CLEAR     57  47  69 W10       30.17R
$$

COZ042>045-048>051-090-091-011400-
...NORTHEAST COLORADO...

CITY           SKY/WX    TMP DP  RH WIND       PRES   REMARKS
GREELEY ARPT   CLEAR     50  46  87 NW3       30.09R
AKRON          CLEAR     58  54  86 SW14      30.07R
BURLINGTON     PTCLDY    59  56  89 W7        30.05S
WRAY           CLOUDY    60  58  95 W9        30.02S
STERLING       CLEAR     55  54  94 SW8       30.03S
HOLYOKE        PTCLDY    61  57  88 SW7       30.01S
FORT MORGAN    CLEAR     52  50  94 W6        30.07F
$$

COZ086-089-092>099-011400-
...SOUTHEAST COLORADO...

CITY           SKY/WX    TMP DP  RH WIND       PRES   REMARKS
PUEBLO         PTCLDY    59  52  77 CALM      30.10R
LA JUNTA       CLEAR     63  56  78 SW7       30.07R
LAMAR          PTCLDY    62  59  90 SW3       30.04R
SPRINGFIELD      N/A     60  53  77 W5        30.08R
$$



USA.gov is the U.S. government's official web portal to all federal, state and local government web resources and services.